TimeMDT,TemperatureF,Dew PointF,Humidity,Sea Level PressureIn,VisibilityMPH,Wind Direction,Wind SpeedMPH,Gust SpeedMPH,PrecipitationIn,Events,Conditions,WindDirDegrees,DateUTC
12:54 AM,59.0,48.0,67,29.78,10.0,East,10.4,-,N/A,,Clear,90,2013-06-11 06:54:00
1:54 AM,59.0,46.9,64,29.77,10.0,East,9.2,-,N/A,,Partly Cloudy,90,2013-06-11 07:54:00
2:54 AM,59.0,46.9,64,29.77,10.0,East,12.7,-,N/A,,Mostly Cloudy,90,2013-06-11 08:54:00
3:54 AM,57.0,46.9,69,29.78,10.0,East,10.4,-,N/A,,Clear,100,2013-06-11 09:54:00
4:54 AM,55.9,46.0,69,29.76,10.0,East,9.2,-,N/A,,Clear,90,2013-06-11 10:54:00
5:54 AM,55.0,46.9,74,29.77,10.0,East,11.5,-,N/A,,Partly Cloudy,100,2013-06-11 11:54:00
6:54 AM,55.0,48.0,77,29.78,10.0,East,6.9,-,N/A,,Clear,100,2013-06-11 12:54:00
7:54 AM,57.0,48.9,74,29.81,10.0,ESE,8.1,-,N/A,,Partly Cloudy,110,2013-06-11 13:54:00
8:54 AM,59.0,51.1,75,29.79,10.0,ESE,3.5,-,N/A,,Clear,110,2013-06-11 14:54:00
9:54 AM,62.1,52.0,70,29.81,10.0,ESE,6.9,-,N/A,,Clear,110,2013-06-11 15:54:00
10:54 AM,64.9,53.1,65,29.80,10.0,Variable,4.6,-,N/A,,Overcast,0,2013-06-11 16:54:00
11:09 AM,64.4,53.6,68,29.88,10.0,Calm,Calm,-,N/A,,Overcast,0,2013-06-11 17:09:00
11:54 AM,66.9,53.1,61,29.81,10.0,Calm,Calm,-,N/A,,Overcast,0,2013-06-11 17:54:00
12:21 PM,60.8,51.8,72,29.90,10.0,WNW,10.4,18.4,N/A,,Overcast,300,2013-06-11 18:21:00
12:54 PM,61.0,53.1,75,29.84,10.0,NW,6.9,-,N/A,,Overcast,310,2013-06-11 18:54:00
1:54 PM,62.1,54.0,75,29.84,10.0,West,9.2,-,N/A,,Overcast,280,2013-06-11 19:54:00
2:54 PM,57.0,51.1,81,29.85,10.0,WNW,12.7,20.7,N/A,,Overcast,300,2013-06-11 20:54:00
3:27 PM,55.4,51.8,88,29.92,10.0,WNW,12.7,-,N/A,,Overcast,300,2013-06-11 21:27:00
3:54 PM,55.9,54.0,93,29.88,10.0,West,11.5,-,0.00,Rain,Light Rain,280,2013-06-11 21:54:00
4:05 PM,55.4,53.6,94,29.94,10.0,WNW,10.4,-,0.00,,Overcast,290,2013-06-11 22:05:00
4:16 PM,53.6,51.8,94,29.98,1.5,SW,21.9,29.9,0.20,Rain,Heavy Rain,230,2013-06-11 22:16:00
4:25 PM,50.0,48.2,94,29.97,1.0,WSW,11.5,-,0.40,Rain,Heavy Rain,240,2013-06-11 22:25:00
4:38 PM,48.2,48.2,100,29.98,1.5,SSW,6.9,-,0.58,Rain,Heavy Rain,200,2013-06-11 22:38:00
4:54 PM,50.0,48.0,93,29.95,1.8,ESE,9.2,-,0.71,Rain,Heavy Rain,120,2013-06-11 22:54:00
5:01 PM,50.0,48.2,94,29.98,2.5,SE,5.8,-,0.02,Rain,Rain,140,2013-06-11 23:01:00
5:09 PM,50.0,48.2,94,29.97,3.0,ESE,5.8,-,0.04,Rain,Rain,110,2013-06-11 23:09:00
5:25 PM,50.0,48.2,94,29.98,3.0,ESE,6.9,-,0.12,Rain,Heavy Rain,120,2013-06-11 23:25:00
5:54 PM,51.1,50.0,96,29.93,6.0,East,8.1,-,0.21,Rain,Rain,90,2013-06-11 23:54:00
6:54 PM,51.1,50.0,96,29.94,4.0,SW,3.5,-,0.18,Rain,Rain,230,2013-06-12 00:54:00
7:54 PM,53.1,51.1,93,29.93,10.0,Calm,Calm,-,0.01,,Partly Cloudy,0,2013-06-12 01:54:00
8:54 PM,52.0,51.1,97,29.92,10.0,ESE,4.6,-,N/A,,Clear,110,2013-06-12 02:54:00
9:54 PM,53.1,51.1,93,29.97,10.0,North,-9999.0,-,N/A,,Overcast,0,2013-06-12 03:54:00
10:54 PM,53.1,51.1,93,30.00,10.0,Calm,Calm,-,N/A,,Overcast,0,2013-06-12 04:54:00
11:54 PM,52.0,51.1,97,29.99,10.0,South,5.8,-,N/A,,Scattered Clouds,170,2013-06-12 05:54:00